sat.trackr.live / text

‹ back to catalog

STARLINK-31786

NORAD 59771 · 2024-091U

PAYLOAD ACTIVE UNKNOWN

§ Identity

Operator
Country
US
Launch date
2024-05-14
Launch site
AFWTR
Launch vehicle
Mass (kg)
RCS (m²)

Purposes: comms

External: N2YO · Heavens-Above · Gunter

§ Orbital elements

Epoch: 2026-05-25T01:18:47.382048Z

Period
94.11 min
Inclination
53.1618°
Eccentricity
0.0001203
Mean motion
15.30196496 rev/d
Perigee alt
474.4 km
Apogee alt
476.0 km
Semi-major
6,853.4 km
B*
2.1389e-5
RAAN
32.3609°
Arg perigee
95.6057°
Mean anomaly
264.5081°
Rev number
11,469

§ Raw data

STARLINK-317861 59771U 24091U   26145.05471507  .00000274  00000+0  21389-4 0  99912 59771  53.1618  32.3609 0001203  95.6057 264.5081 15.30196496114697

JSON: /api/v1/satellites/59771 · /tle

For live sub-satellite position, see the globe view (requires WebGL).

§ Visibility from observer

Set your observer location to see the next 7 days of passes ≥ 10°. The values pass through the URL so the page stays shareable.

No JS? Fill the form by hand. The geolocation button needs JavaScript.